Wind_Speed
7 5 4 4 5 5 4 4 4 4 4 4 4 4 5 5 6 7 7 8 8 9 11 12 13 13 13 12 11 12 12 12 11 11 11 11 10 10 9 8 8 7 6
7 5 4 4 4 4 4 4 4 4 4 4 4 4 5 5 6 6 6 7 7 8 10 11 12 14 14 13 13 13 13 12 12 12 12 12 12 11 11 11 10 9 8
8 6 4 3 3 3 3 4 4 3 3 3 3 4 4 4 4 5 6 6 6 7 8 9 10 12 12 12 13 13 14 14 14 13 13 13 13 13 12 12 12 11 10
8 6 4 3 3 3 3 3 3 3 3 3 3 3 3 3 4 5 5 6 6 7 7 7 8 10 11 11 12 13 13 14 14 14 14 14 14 14 14 14 14 14 13
8 6 5 4 3 3 3 3 2 2 2 2 2 3 3 3 3 3 4 5 5 5 5 5 6 7 9 10 10 10 12 13 14 15 15 14 14 15 14 14 14 14 14
9 7 6 4 3 3 3 3 2 2 2 2 3 3 3 3 3 3 3 3 4 4 5 5 5 6 7 8 8 8 9 11 12 13 15 15 15 15 15 14 14 15 15
10 8 7 6 4 3 4 3 3 2 2 2 2 2 2 2 2 2 2 3 3 4 4 4 5 5 5 6 6 7 7 9 10 11 12 14 14 15 15 15 15 16 16
11 9 8 7 6 5 5 4 4 3 3 2 2 2 2 2 2 2 2 3 3 4 4 4 4 5 5 5 6 6 6 7 8 9 11 12 12 13 14 14 15 15 16
12 10 9 8 7 6 6 5 5 4 3 3 2 2 2 2 2 3 3 3 3 3 4 4 4 5 6 6 6 6 7 7 8 9 10 11 12 13 14 15 15 16 17
14 12 10 9 8 8 7 6 6 5 4 4 3 3 3 3 3 3 3 3 4 4 4 5 5 6 6 7 7 7 7 8 9 9 10 10 11 13 14 14 15 16 17
15 13 12 11 10 9 9 8 7 7 6 5 4 4 4 5 5 5 5 5 6 6 6 6 7 7 7 7 8 8 9 10 10 10 11 11 12 13 13 14 15 16 16
15 14 14 12 12 11 10 10 9 8 7 7 6 6 6 6 7 7 7 7 8 8 8 8 9 9 10 10 10 11 11 11 12 12 13 13 13 14 14 15 15 16 17
16 15 15 14 13 12 12 11 11 11 10 10 9 9 9 9 9 10 10 10 10 10 10 11 11 12 13 13 14 14 14 14 15 15 15 16 16 16 16 17 17 18 18
17 16 15 15 14 14 13 13 13 13 13 13 12 12 12 12 12 12 13 13 14 14 14 15 15 16 16 17 17 18 18 18 19 19 19 19 19 20 20 20 20 20 21
17 16 16 16 16 15 16 16 15 15 15 15 15 15 15 15 15 16 16 17 17 18 19 19 19 20 20 21 21 21 22 22 23 23 23 23 23 23 23 23 23 24 24
17 17 17 18 18 17 18 18 18 18 18 18 18 18 19 19 19 20 20 21 22 22 23 23 24 24 25 25 25 25 26 26 26 26 26 27 27 27 27 27 27 27 27
18 18 18 19 19 19 19 19 20 20 21 21 21 22 22 23 23 23 24 25 26 26 27 28 28 29 29 29 29 30 30 30 30 30 30 30 30 31 31 31 31 31 31
19 19 19 19 19 19 20 21 21 22 23 24 24 25 26 26 26 27 28 29 30 30 31 32 33 33 34 34 34 34 35 34 35 34 35 35 35 35 35 35 35 35 35
19 19 20 20 21 21 22 22 23 24 26 26 27 28 29 29 30 31 31 32 33 34 34 36 37 37 38 38 38 39 39 39 39 40 39 39 39 39 39 40 40 40 40
19 20 20 21 22 23 23 24 25 25 27 28 29 30 31 31 33 34 34 35 36 37 38 39 40 41 42 42 43 43 43 43 43 44 44 44 44 44 44 44 44 44 44
18 20 21 22 23 24 25 26 27 27 28 30 31 32 33 34 35 36 37 38 39 40 41 41 42 43 44 45 45 46 46 46 46 47 47 47 48 48 48 48 48 48 48
20 21 21 22 23 24 25 27 28 29 31 32 33 34 35 36 37 38 39 40 41 43 44 45 45 45 46 47 49 49 50 50 50 50 50 50 51 51 52 52 52 51 52
21 22 24 24 26 27 27 28 30 32 33 34 36 37 38 39 40 40 41 43 45 45 46 48 49 50 51 52 52 53 54 54 53 53 54 53 53 54 54 54 54 54 54
23 24 25 26 27 28 29 31 32 34 35 37 39 40 41 42 44 45 46 47 48 49 50 51 52 52 54 55 55 55 56 56 55 55 56 55 55 56 56 56 56 55 56
23 25 26 27 28 30 31 32 34 35 37 39 41 43 44 45 46 48 49 50 51 52 52 52 53 54 55 56 56 57 57 57 57 57 58 59 59 59 58 57 58 58 58
26 27 29 30 31 33 34 36 37 38 39 41 43 45 46 47 48 49 50 51 52 53 54 55 56 57 57 58 58 59 59 60 60 60 60 61 60 61 60 60 60 61 61
Wind_Direction
234 238 244 254 263 267 265 265 267 267 262 259 254 244 237 234 237 238 232 230 232 234 234 233 229 224 221 221 223 226 229 230 227 228 229 231 234 237 240 241 243 246 249
230 234 243 257 265 261 254 253 261 268 266 264 264 258 253 245 243 241 235 232 234 238 237 237 236 231 227 228 229 230 232 232 233 233 234 236 239 242 242 243 246 248 250
231 237 243 254 258 252 242 241 247 260 260 260 263 258 254 249 242 240 236 234 237 242 244 242 242 235 233 234 238 237 237 237 238 238 239 240 242 244 245 246 247 249 251
232 236 236 241 245 238 230 230 236 249 254 256 254 251 250 247 240 241 237 238 241 242 244 245 247 243 242 243 244 244 246 245 243 243 243 244 245 245 247 249 250 249 251
228 228 229 231 232 223 217 222 224 234 240 244 244 244 245 242 238 235 234 237 238 239 244 248 250 245 246 249 252 252 248 246 248 244 242 244 247 248 249 252 252 252 252
222 223 224 224 220 215 213 210 204 215 224 231 237 241 244 243 243 241 237 236 241 247 252 253 252 247 248 249 255 260 258 253 251 249 244 244 248 249 249 251 253 254 255
216 217 220 220 216 209 206 203 192 197 205 212 219 228 236 250 253 256 246 238 244 257 259 257 256 256 256 254 258 263 264 263 258 254 251 250 249 251 252 252 255 256 257
216 217 221 219 214 209 204 202 195 195 196 192 202 218 234 245 247 255 248 246 253 263 267 274 268 263 262 263 260 260 265 271 272 268 263 258 255 255 255 255 258 259 260
219 220 221 217 211 208 207 205 200 198 199 198 207 222 229 242 246 247 252 259 266 272 274 275 276 274 270 267 265 266 270 274 278 281 277 268 262 260 258 259 261 261 262
219 221 222 216 213 212 212 209 207 206 208 214 222 233 241 243 246 247 254 265 271 275 279 276 278 279 279 277 272 275 275 278 279 280 280 277 273 268 265 263 263 263 263
221 225 224 221 220 218 217 218 218 217 219 224 231 240 245 249 252 257 260 263 267 271 274 276 279 282 283 282 281 282 281 281 281 281 280 279 277 273 271 269 267 266 265
223 226 225 225 223 221 222 225 226 226 229 235 240 245 251 255 258 261 264 267 268 270 272 274 277 278 279 281 282 282 282 282 282 281 281 280 278 277 274 273 270 269 269
221 223 226 226 226 225 227 230 234 234 236 243 248 251 253 257 260 263 265 266 268 270 271 273 275 276 277 278 278 279 279 280 280 280 279 279 278 277 276 275 274 273 272
221 225 228 229 231 232 233 237 241 242 243 247 251 254 256 258 261 263 265 268 270 271 272 274 275 275 276 277 278 278 277 278 278 278 277 277 277 277 277 276 274 274 274
223 229 232 233 235 237 239 241 244 246 248 251 253 255 258 260 263 265 267 268 271 272 273 274 275 276 276 277 277 277 277 277 277 277 276 276 276 276 276 275 275 274 274
227 231 234 237 238 240 244 246 248 250 252 254 256 258 260 263 264 266 267 269 271 273 274 274 275 275 275 275 276 277 276 276 276 276 276 276 275 275 275 274 274 274 274
231 235 238 240 243 245 246 249 251 253 255 257 259 260 262 264 266 267 268 270 271 272 274 274 275 275 275 275 276 276 276 276 276 276 276 275 275 275 275 275 274 274 274
237 239 241 242 245 248 251 254 256 257 259 261 262 263 264 265 266 267 269 270 271 272 273 274 275 274 275 275 275 276 275 275 275 275 275 275 275 275 274 274 274 274 273
240 241 244 248 250 253 256 258 259 261 262 263 265 266 267 268 268 269 270 271 271 272 274 275 276 276 276 276 276 276 276 276 276 276 275 275 275 275 274 274 274 274 274
243 244 247 252 255 256 260 263 264 265 264 265 267 268 270 271 271 272 272 273 273 273 274 275 275 276 277 277 277 277 277 277 277 277 276 275 275 275 275 275 274 274 274
246 249 252 256 258 261 265 267 267 268 269 268 269 271 271 273 274 274 274 274 274 274 274 275 276 276 275 275 275 276 276 276 277 277 276 276 275 275 274 273 273 273 273
250 253 256 260 264 267 269 270 270 272 272 272 272 273 274 275 275 275 275 276 276 276 276 276 277 277 276 276 275 276 276 276 276 275 275 275 276 276 275 274 273 273 273
254 256 260 264 268 271 273 273 273 275 276 275 275 275 276 276 278 278 278 277 278 278 277 278 279 280 279 278 278 277 277 276 276 276 275 275 275 275 274 274 274 274 273
263 263 267 268 271 274 275 276 276 277 278 278 278 278 278 278 279 280 280 280 280 279 280 280 281 281 280 280 279 278 277 276 276 276 276 276 275 274 274 274 274 273 273
267 269 273 275 275 275 278 279 279 279 279 280 280 280 280 280 281 281 282 282 281 281 281 281 281 281 280 280 280 279 277 277 277 277 277 277 276 274 274 274 274 273 272
270 272 275 276 278 279 280 281 281 282 282 282 282 282 282 282 283 283 282 282 282 282 282 282 282 282 281 280 280 279 278 278 278 277 277 277 277 276 275 274 274 274 273
Height
5888 5888 5889 5889 5889 5888 5888 5888 5888 5887 5887 5887 5888 5888 5888 5888 5888 5888 5889 5889 5890 5891 5891 5892 5893 5893 5894 5895 5896 5897 5898 5899 5900 5901 5902 5903 5904 5905 5905 5906 5906 5907 5907
5886 5887 5887 5888 5888 5887 5887 5887 5887 5887 5887 5887 5887 5887 5887 5887 5887 5887 5888 5888 5889 5890 5890 5891 5891 5892 5893 5894 5895 5896 5897 5897 5898 5899 5900 5901 5902 5903 5904 5904 5905 5905 5906
5885 5885 5886 5887 5887 5886 5886 5886 5886 5886 5886 5886 5886 5886 5886 5886 5886 5886 5887 5887 5888 5888 5888 5889 5889 5890 5891 5892 5893 5894 5895 5895 5896 5897 5898 5899 5900 5901 5901 5902 5903 5904 5904
5884 5884 5885 5885 5886 5886 5886 5886 5886 5886 5886 5886 5886 5886 5886 5886 5885 5886 5886 5886 5886 5887 5887 5887 5888 5888 5889 5890 5891 5891 5892 5893 5894 5895 5896 5897 5898 5898 5899 5900 5900 5901 5902
5882 5883 5884 5884 5885 5885 5885 5885 5885 5885 5885 5885 5885 5885 5885 5885 5885 5885 5885 5886 5885 5886 5886 5886 5886 5887 5888 5888 5889 5889 5889 5890 5891 5892 5893 5894 5895 5896 5896 5897 5898 5898 5899
5880 5881 5882 5883 5884 5884 5884 5885 5885 5885 5885 5885 5885 5885 5885 5885 5885 5885 5885 5885 5885 5885 5885 5886 5886 5886 5886 5887 5887 5887 5887 5888 5888 5889 5890 5891 5892 5892 5893 5894 5895 5895 5896
5879 5880 5881 5882 5883 5883 5884 5884 5884 5885 5885 5885 5885 5885 5885 5885 5885 5885 5885 5885 5885 5885 5885 5885 5885 5885 5885 5885 5886 5886 5886 5886 5886 5886 5887 5888 5889 5889 5890 5891 5891 5892 5893
5877 5879 5880 5881 5882 5883 5883 5884 5884 5884 5885 5885 5885 5885 5885 5885 5885 5884 5884 5885 5885 5884 5884 5884 5884 5884 5884 5884 5884 5884 5885 5885 5884 5884 5885 5885 5886 5886 5887 5887 5888 5889 5889
5875 5877 5878 5880 5881 5881 5882 5883 5883 5884 5884 5884 5885 5885 5885 5885 5885 5885 5884 5884 5884 5884 5884 5883 5883 5883 5883 5883 5883 5883 5883 5883 5883 5883 5883 5883 5883 5883 5884 5884 5885 5885 5885
5873 5875 5877 5878 5879 5880 5881 5882 5883 5883 5884 5884 5884 5884 5884 5884 5884 5884 5884 5884 5884 5883 5883 5883 5882 5882 5882 5882 5882 5882 5882 5882 5882 5881 5881 5881 5881 5881 5881 5881 5881 5881 5882
5871 5873 5875 5876 5878 5879 5880 5881 5882 5882 5883 5883 5884 5884 5883 5884 5884 5884 5884 5883 5883 5883 5882 5882 5882 5881 5881 5881 5880 5880 5880 5880 5880 5879 5879 5879 5878 5878 5878 5878 5878 5878 5878
5869 5871 5873 5875 5876 5877 5878 5879 5880 5881 5882 5882 5882 5882 5883 5883 5883 5883 5882 5882 5882 5882 5881 5881 5880 5880 5879 5879 5879 5878 5878 5878 5877 5877 5876 5876 5876 5875 5875 5875 5875 5875 5874
5867 5869 5871 5872 5874 5875 5876 5877 5878 5879 5880 5880 5880 5881 5881 5881 5881 5881 5881 5880 5880 5880 5879 5879 5878 5878 5877 5877 5876 5876 5875 5875 5874 5874 5873 5873 5872 5872 5872 5871 5871 5871 5871
5864 5866 5868 5870 5871 5872 5873 5874 5875 5876 5877 5878 5878 5878 5878 5878 5878 5878 5878 5878 5878 5877 5877 5876 5875 5875 5874 5873 5873 5872 5872 5871 5870 5870 5869 5869 5868 5868 5868 5867 5867 5866 5866
5861 5863 5865 5867 5868 5869 5870 5871 5872 5873 5874 5874 5875 5875 5875 5875 5875 5875 5875 5874 5874 5874 5873 5872 5872 5871 5870 5869 5868 5868 5867 5866 5866 5865 5864 5864 5863 5863 5862 5862 5862 5861 5861
5858 5860 5862 5863 5864 5865 5866 5867 5868 5869 5869 5870 5870 5871 5871 5871 5871 5870 5870 5870 5869 5869 5868 5867 5867 5866 5865 5864 5863 5862 5861 5860 5860 5859 5859 5858 5857 5857 5856 5856 5855 5855 5854
5854 5856 5858 5859 5860 5861 5862 5863 5863 5864 5864 5865 5865 5865 5865 5865 5865 5865 5864 5864 5863 5862 5861 5860 5860 5859 5858 5857 5856 5855 5854 5854 5853 5852 5851 5851 5850 5849 5849 5848 5848 5847 5847
5850 5852 5853 5855 5856 5857 5857 5858 5858 5859 5859 5859 5859 5859 5859 5859 5858 5858 5857 5857 5856 5855 5854 5853 5852 5851 5850 5849 5848 5847 5846 5845 5845 5844 5843 5842 5842 5841 5840 5840 5839 5839 5838
5846 5847 5849 5850 5851 5852 5852 5852 5852 5853 5853 5852 5852 5852 5852 5852 5851 5851 5850 5849 5848 5847 5846 5845 5844 5842 5841 5840 5839 5838 5837 5836 5835 5834 5833 5833 5832 5831 5830 5830 5829 5829 5828
5842 5843 5844 5845 5846 5846 5846 5846 5846 5846 5845 5845 5845 5845 5845 5844 5843 5842 5841 5840 5839 5838 5837 5836 5834 5833 5831 5830 5828 5827 5826 5825 5824 5822 5821 5821 5820 5820 5819 5818 5817 5817 5816
5837 5838 5839 5839 5840 5840 5840 5839 5839 5838 5838 5838 5837 5837 5836 5835 5834 5833 5832 5831 5829 5828 5827 5825 5824 5822 5820 5819 5817 5816 5814 5813 5812 5810 5809 5808 5806 5806 5806 5805 5804 5804 5803
5832 5833 5833 5834 5834 5833 5833 5832 5832 5831 5830 5829 5828 5828 5827 5825 5824 5822 5821 5820 5818 5817 5815 5813 5812 5810 5808 5806 5805 5803 5801 5800 5799 5798 5795 5795 5793 5792 5791 5790 5790 5790 5789
5827 5827 5827 5827 5827 5826 5826 5825 5824 5823 5822 5821 5819 5818 5817 5815 5813 5812 5810 5808 5806 5804 5803 5801 5798 5797 5794 5793 5791 5789 5787 5786 5784 5783 5781 5780 5779 5777 5776 5775 5774 5774 5773
5821 5821 5820 5820 5819 5819 5818 5817 5816 5814 5813 5811 5810 5808 5806 5804 5802 5800 5798 5795 5793 5791 5789 5787 5784 5782 5780 5777 5775 5773 5771 5770 5769 5767 5764 5764 5763 5762 5760 5759 5758 5757 5757
5814 5814 5813 5813 5812 5811 5810 5809 5807 5805 5803 5801 5799 5797 5794 5792 5790 5787 5785 5782 5779 5776 5774 5771 5769 5766 5764 5762 5759 5757 5755 5753 5752 5751 5748 5746 5746 5744 5744 5743 5741 5740 5740
5807 5806 5805 5804 5803 5802 5801 5799 5797 5795 5793 5790 5788 5785 5782 5780 5777 5774 5771 5768 5765 5762 5759 5756 5753 5751 5748 5745 5742 5740 5737 5735 5734 5733 5730 5728 5727 5725 5726 5726 5724 5722 5721